Flag for Poland Weather past 2 weeks in Grudziądz, Poland

Now
54 °F

Passing clouds.


Feels Like: 54 °F
Forecast: 46 / 66 °F
Wind: 2 mph from Southeast

Location: Torun

Current Time: May 30, 2015 at 6:53:21 AM

Latest Report: May 30, 2015 at 4:00 AM


Visibility: 6 mi

Pressure: 29.76 "Hg

Humidity: 89%

Dew point: 50 °F

Location of GrudziądzLocation

Historic Weather in Grudziądz — Graph

°F

Grudziądz temperature yesterday

Maximum temperature yesterday: 66 °F (at 4:00 PM)
Minimum temperature yesterday: 51 °F (at 6:00 AM)
Average temperature yesterday: 59 °F

Past Weeks' High & Low Weather Summary

 TemperatureHumidityPressure
High76 °F (May 19, 12:00 PM)96% (May 15, 4:00 AM)30.29 "Hg (May 15, 4:00 AM)
Low30 °F (May 16, 4:00 AM)27% (May 24, 2:00 PM)29.65 "Hg (May 19, 10:00 AM)
Average56 °F62%29.98 "Hg
* Reported May 15 4:00 AM — May 30 4:00 AM, Grudziądz, Weather by CustomWeather, © 2015

Note: Actual official high and low records may vary slightly from our data, if they occured in-between our weather recording intervals... More about our weather records

Advertising

Grudziądz weather history for previous 24 hours

 ConditionsComfort  
Time TempWeatherWind HumidityBarometerVisibility
4:00 AM
Sat, May 30
54 °FPassing clouds.2 mph89%29.76 "Hg6 mi
3:00 AM55 °FOvercast.2 mph85%29.78 "Hg6 mi
2:00 AM55 °FPassing clouds.3 mph89%29.80 "Hg6 mi
1:00 AM56 °FSprinkles. Overcast.5 mph79%29.83 "Hg7 mi
12:00 AM58 °FSprinkles. Overcast.2 mph59%29.82 "Hg19 mi
10:00 PM
Fri, May 29
56 °FPassing clouds.2 mph59%29.85 "Hg17 mi
9:00 PM61 °FPassing clouds.2 mph49%29.85 "Hg28 mi
8:00 PM64 °FOvercast.2 mph40%29.85 "Hg31 mi
7:00 PM65 °FOvercast.2 mph38%29.86 "Hg31 mi
6:00 PM66 °FOvercast.1 mph36%29.86 "Hg25 mi
5:00 PM65 °FPartly sunny.1 mph41%29.88 "Hg28 mi
4:00 PM66 °FPartly sunny.2 mph37%29.89 "Hg19 mi
3:00 PM64 °FPartly sunny.1 mph41%29.90 "Hg19 mi
2:00 PM64 °FOvercast.1 mph44%29.91 "Hg25 mi
1:00 PM64 °FPartly sunny.2 mph41%29.92 "Hg19 mi
12:00 PM64 °FScattered clouds.3 mph40%29.93 "Hg25 mi
11:00 AM61 °FScattered clouds.2 mph50%29.93 "Hg25 mi
10:00 AM60 °FScattered clouds.2 mph51%29.93 "Hg25 mi
9:00 AM57 °FPassing clouds.2 mph60%29.93 "Hg22 mi
8:00 AM55 °FScattered clouds.2 mph72%29.93 "Hg28 mi
7:00 AM52 °FScattered clouds.1 mph84%29.92 "Hg8 mi
6:00 AM51 °FOvercast.1 mph81%29.90 "Hg9 mi
Weather by CustomWeather, © 2015

See weather overviewHow to use our weather pages